Back to catalog

STARLINK-33605

AliveCommunicationsVLEO
NORAD 63074·PAYLOAD·🇺🇸 United States

Launched Feb 21, 2025 from Cape Canaveral Space Force Station

Loading…

Next Passes (next 24 hours)

TLE

FreshSource: CelesTrak SupGP

Epoch: Sep 14, 2026, 21:28 UTC

1 63074C 25035Y   26257.89493056 -.00035632  00000+0 -12908-2 0  2570
2 63074  43.0007 158.3644 0001643 266.5950 261.2090 15.27591002    17

Track STARLINK-33605 in real time with AllMySat

Download on the App Store